Weather History for Omaha, NE

Change the Weather History Date:

Sunday, July 28, 2013

  Actual Average Record
Temperature  
Mean Temperature 64 °F 77 °F  
Max Temperature 79 °F 87 °F 105 °F (1931)
Min Temperature 48 °F 66 °F 48 °F (2013)
Degree Days  
Heating Degree Days 1 0  
Month to date heating degree days 2 0  
Since 1 June heating degree days 18 17  
Since 1 July heating degree days 2 0  
Cooling Degree Days 0 12  
Month to date cooling degree days 347 332  
Year to date cooling degree days 678 644  
Since 1 June cooling degree days 582 562  
Growing Degree Days 14 (Base 50)    
Moisture  
Dew Point 48 °F    
Average Humidity 65    
Maximum Humidity 100    
Minimum Humidity 29    
Precipitation  
Precipitation 0.00 in 0.13 in 1.43 in (1927)
Month to date precipitation 0.38 3.45  
Year to date precipitation 19.46 18.91  
Snow  
Snow 0.00 in 0.00 in - ()
Month to date snowfall 0.0 0.0  
Since 1 July snowfall 0.0 0.0  
Snow Depth 0.00 in    
Sea Level Pressure  
Sea Level Pressure 30.05 in    
Wind  
Wind Speed 3 mph (NNE)    
Max Wind Speed 12 mph    
Max Gust Speed 17 mph    
Visibility 10 miles    
Events      
T = Trace of Precipitation, MM = Missing Value Source: NWS Daily Summary

Daily Weather History Graph

Daily Weather History Graph

Search for Another Location

Airport:

Trip Planner

Search our weather history database for the weather conditions in past years. The results will help you decide how hot, cold, wet, or windy it might be!

Date:

Astronomy

Jul. 28, 2013 Rise Set
Actual Time 6:15 AM CDT 8:44 PM CDT
Civil Twilight 5:43 AM CDT 9:15 PM CDT
Nautical Twilight 5:04 AM CDT 9:54 PM CDT
Astronomical Twilight 4:20 AM CDT 10:38 PM CDT
Moon No Moon Rise 1:03 PM CDT (7/28)
Length of Visible Light 15h 32m
Length of Day
14h 29m
Waning Gibbous, 60% of the Moon is Illuminated
Jul 28
Waning Gibbous
Jul 29
Last Quarter
Aug 6
New
Aug 14
First Quarter
Aug 20
Full

Hourly Weather History & Observations

Time (CDT) Temp. Dew Point Humidity Pressure Visibility Wind Dir Wind Speed Gust Speed Precip Events Conditions
12:52 AM 55.9 °F 50.0 °F 80% 30.06 in 10.0 mi NNE 3.5 mph - N/A   Scattered Clouds
1:52 AM 55.9 °F 50.0 °F 80% 30.06 in 10.0 mi Calm Calm - N/A   Scattered Clouds
2:52 AM 54.0 °F 50.0 °F 86% 30.06 in 10.0 mi Calm Calm - N/A   Partly Cloudy
3:52 AM 52.0 °F 50.0 °F 93% 30.05 in 10.0 mi Calm Calm - N/A   Partly Cloudy
4:52 AM 50.0 °F 46.9 °F 89% 30.05 in 10.0 mi North 3.5 mph - N/A   Clear
5:52 AM 48.9 °F 48.0 °F 97% 30.05 in 10.0 mi Calm Calm - N/A   Partly Cloudy
6:52 AM 52.0 °F 48.0 °F 86% 30.07 in 10.0 mi Calm Calm - N/A   Scattered Clouds
7:52 AM 55.9 °F 50.0 °F 80% 30.07 in 10.0 mi Calm Calm - N/A   Scattered Clouds
8:52 AM 63.0 °F 48.9 °F 60% 30.08 in 10.0 mi Calm Calm - N/A   Scattered Clouds
9:52 AM 66.9 °F 50.0 °F 54% 30.07 in 10.0 mi Variable 5.8 mph - N/A   Scattered Clouds
10:52 AM 69.1 °F 48.9 °F 49% 30.07 in 10.0 mi NNW 3.5 mph - N/A   Mostly Cloudy
11:52 AM 71.1 °F 45.0 °F 39% 30.06 in 10.0 mi Variable 4.6 mph 17.3 mph N/A   Mostly Cloudy
12:52 PM 73.0 °F 44.1 °F 35% 30.06 in 10.0 mi ENE 5.8 mph - N/A   Mostly Cloudy
1:52 PM 75.0 °F 46.0 °F 36% 30.04 in 10.0 mi NW 8.1 mph - N/A   Mostly Cloudy
2:52 PM 75.9 °F 45.0 °F 33% 30.03 in 10.0 mi North 9.2 mph - N/A   Scattered Clouds
3:52 PM 77.0 °F 44.1 °F 31% 30.02 in 10.0 mi North 8.1 mph - N/A   Scattered Clouds
4:52 PM 78.1 °F 45.0 °F 31% 30.02 in 10.0 mi Variable 6.9 mph - N/A   Scattered Clouds
5:52 PM 77.0 °F 44.1 °F 31% 30.02 in 10.0 mi Variable 4.6 mph - N/A   Scattered Clouds
6:52 PM 77.0 °F 43.0 °F 30% 30.01 in 10.0 mi NE 4.6 mph - N/A   Scattered Clouds
7:52 PM 73.9 °F 48.0 °F 40% 30.02 in 10.0 mi ENE 4.6 mph - N/A   Scattered Clouds
8:52 PM 70.0 °F 48.9 °F 47% 30.02 in 10.0 mi East 6.9 mph - N/A   Scattered Clouds
9:52 PM 63.0 °F 51.1 °F 65% 30.04 in 10.0 mi Variable 3.5 mph - N/A   Scattered Clouds
10:52 PM 64.0 °F 50.0 °F 60% 30.05 in 10.0 mi Calm Calm - N/A   Scattered Clouds
11:52 PM 62.1 °F 51.1 °F 67% 30.05 in 10.0 mi Calm Calm - N/A   Scattered Clouds